GFSSGP_700_rhum_276.txt.gz
RH
5 7 7 7 8 23 30 28 21 19 25 26 41 35 31 43 44 41 25 12 12 11 10 10 10 10 10 10 10 10 10 10 9 9 10 10 10 10 11 14 18 15 14 13 11 10 10 10 11
7 9 10 11 21 26 30 27 18 18 23 25 34 27 26 39 40 38 26 13 11 12 10 10 10 11 10 10 9 9 10 10 9 10 10 10 10 10 12 17 17 15 14 11 11 11 11 11 11
8 11 12 14 24 32 35 31 23 18 28 26 25 24 24 39 36 29 22 12 12 13 11 11 11 11 10 10 9 9 9 10 9 10 10 10 10 11 12 15 14 13 11 10 11 11 12 12 12
8 10 13 18 27 36 35 31 27 19 38 44 49 32 35 33 36 37 27 13 11 12 12 12 12 11 11 10 10 9 9 9 10 9 10 10 11 11 13 12 11 10 10 11 12 13 16 20 22
9 10 13 20 29 37 34 30 28 30 37 39 45 39 45 34 36 30 31 42 16 11 12 12 12 12 11 11 10 10 10 10 10 10 11 11 12 12 13 10 10 10 12 15 19 23 25 25 26
8 9 12 14 24 33 32 29 28 28 28 29 35 51 54 36 34 32 29 39 49 43 12 13 13 12 12 12 11 10 10 11 11 11 12 12 11 12 11 10 11 13 21 24 26 27 29 29 30
11 9 12 14 17 26 32 31 26 39 36 29 27 26 31 34 38 37 31 36 37 55 40 14 14 14 13 13 12 11 11 11 11 12 12 11 11 12 11 11 14 19 24 26 29 31 32 34 35
28 19 14 14 17 23 31 32 29 36 54 75 37 41 43 47 53 51 46 41 42 44 51 17 15 15 14 14 14 13 11 11 11 11 11 11 11 11 12 14 18 22 25 28 30 33 34 36 39
22 24 25 31 38 26 26 31 30 32 37 58 78 67 76 89 81 75 54 33 30 40 41 22 16 17 16 15 15 14 13 12 12 12 12 12 12 12 13 18 21 23 25 28 31 31 31 32 34
13 18 22 32 33 28 25 27 32 31 43 52 58 78 90 96 100 91 72 60 57 57 59 26 16 18 18 17 16 15 15 15 14 14 13 13 14 15 17 20 23 24 24 24 27 29 31 33 34
12 18 22 26 24 28 23 29 34 32 31 32 37 38 44 63 86 97 96 90 84 66 68 80 35 19 20 20 18 16 16 16 16 16 16 15 15 16 18 19 21 23 25 28 28 28 30 32 35
10 16 21 21 20 20 23 26 28 32 30 30 31 32 32 36 49 66 86 95 92 91 85 90 81 78 25 23 22 19 18 16 16 18 18 18 18 19 20 22 26 28 29 29 28 29 31 34 37
5 8 11 11 12 17 21 23 22 25 26 27 28 29 32 32 34 58 67 78 80 84 94 97 93 85 82 32 24 23 21 19 18 19 19 19 19 21 23 26 28 29 29 28 28 31 33 34 34
7 6 6 6 6 6 8 11 15 18 21 22 23 24 26 30 32 33 49 74 81 79 79 88 94 98 96 83 29 26 24 22 21 20 20 21 21 23 25 26 28 29 29 28 30 33 35 36 34
7 8 9 9 9 8 7 9 12 20 14 18 19 19 19 21 25 30 32 35 53 76 68 77 81 93 100 97 58 28 26 25 24 23 22 22 24 24 25 26 28 29 30 31 32 34 34 34 34
4 7 8 13 9 13 9 12 20 23 20 14 13 13 16 16 17 21 26 29 30 47 54 58 52 53 83 96 99 55 27 26 25 25 25 25 25 26 26 26 28 29 31 32 34 35 35 34 33
8 20 17 18 21 12 13 18 13 16 22 26 23 20 17 14 16 15 16 19 24 28 49 48 55 46 47 82 96 99 85 27 26 26 26 27 28 29 30 31 32 33 34 34 34 34 34 34 33
32 26 28 33 24 13 19 22 20 17 21 28 30 28 28 26 22 18 15 13 12 16 22 30 50 43 40 48 78 92 96 92 31 26 25 26 28 29 30 31 31 32 32 31 31 31 30 31 31
31 31 32 31 31 34 29 22 21 20 23 24 26 27 25 25 28 27 22 17 17 18 20 22 32 50 38 40 59 78 84 97 72 26 27 25 23 24 26 28 28 28 28 28 27 28 28 28 26
11 13 18 19 21 32 37 25 20 32 38 42 37 57 62 51 40 31 30 24 21 19 24 29 29 42 47 38 44 62 78 87 97 62 26 26 28 24 22 23 24 26 26 26 26 25 25 26 25
11 21 18 30 42 30 41 32 42 56 55 64 71 69 61 57 48 46 38 32 23 24 20 20 25 32 36 35 41 47 59 72 78 89 64 25 23 24 24 22 22 22 23 25 25 25 24 25 25
15 14 13 23 38 51 55 56 58 52 52 47 69 70 53 54 55 52 52 50 35 24 28 20 20 23 32 38 38 42 47 53 60 75 81 78 65 59 47 29 25 22 21 22 24 25 25 24 24
16 11 12 21 38 48 60 59 62 60 52 68 88 71 52 26 46 44 44 44 44 44 31 29 23 21 24 25 33 40 42 47 52 58 67 70 66 77 81 80 49 30 23 21 21 22 24 25 24
17 13 24 40 43 75 70 61 56 58 61 66 56 43 38 28 20 38 38 43 47 42 49 41 27 22 22 25 27 28 38 42 48 49 55 60 56 58 67 66 76 61 35 26 22 21 22 24 25
20 10 32 55 74 74 80 50 54 66 68 72 56 51 47 29 21 18 27 33 44 47 42 46 52 35 22 26 27 27 29 40 45 46 44 46 44 46 53 63 68 75 62 34 26 22 22 21 22
30 44 46 71 97 78 36 56 70 62 56 46 36 36 36 33 24 22 19 27 32 41 49 42 44 48 38 27 36 28 26 28 32 41 52 49 45 44 50 61 67 75 77 68 39 28 24 23 22
30 46 69 69 82 89 68 74 76 72 72 74 56 47 39 34 26 24 30 32 38 44 44 46 43 40 46 41 29 40 33 24 24 25 33 46 62 52 46 55 66 74 76 83 80 48 29 27 26
40 51 58 60 99 98 66 45 39 42 55 69 69 49 45 31 26 24 36 49 66 65 59 51 45 42 37 42 41 34 41 35 25 23 22 26 35 56 71 58 61 76 78 78 80 84 68 49 32
36 38 48 51 73 93 98 47 34 43 44 42 46 41 40 34 30 33 45 66 78 71 63 56 52 46 40 37 37 40 36 37 33 25 23 21 22 27 39 53 71 66 69 78 81 84 85 78 78
45 52 51 48 62 70 77 56 46 68 80 50 51 48 47 40 65 73 72 80 83 72 63 56 49 50 49 38 38 36 38 38 37 34 22 19 20 20 23 29 46 68 81 71 75 79 81 83 76

GFSSGP_700_rhum_279.txt.gz
RH
6 6 7 6 23 26 34 30 22 25 43 37 37 34 32 41 44 48 34 13 11 10 10 10 11 11 11 12 11 11 10 10 10 10 10 10 10 11 14 15 14 14 13 11 9 10 11 11 12
10 10 9 24 26 31 34 26 21 23 47 41 35 40 41 46 52 47 34 13 12 10 10 11 11 11 10 10 10 10 10 10 10 10 10 10 10 12 16 17 15 13 11 10 9 10 11 10 10
10 13 14 27 32 38 36 30 27 29 39 42 39 35 40 41 32 26 17 12 12 11 11 11 11 11 11 10 10 10 10 10 10 10 10 10 10 12 18 15 14 12 10 10 10 10 11 10 11
10 14 20 30 34 35 32 39 30 48 41 49 40 34 37 41 40 36 17 11 12 12 12 12 12 11 11 11 10 10 10 10 10 10 10 10 11 12 14 14 12 10 10 11 11 12 14 16 18
10 12 19 35 37 37 34 38 30 32 44 46 48 51 43 44 32 33 47 31 11 12 12 12 12 12 12 11 10 10 10 10 10 10 10 11 12 13 12 11 10 10 11 12 16 20 22 23 23
8 10 18 36 39 39 33 40 30 25 43 60 63 53 48 45 39 35 46 59 40 14 13 13 13 13 13 12 11 11 10 10 11 11 11 11 12 13 11 10 11 12 16 20 22 23 24 26 26
9 8 16 31 37 36 36 35 36 36 24 24 46 56 69 52 44 41 45 48 58 46 23 14 14 14 14 13 12 11 11 11 11 11 11 11 13 12 11 12 14 18 21 24 26 28 29 30 31
12 10 24 30 37 39 39 34 39 41 40 41 40 52 68 63 58 53 55 52 50 50 34 23 16 15 15 14 13 12 12 12 12 12 11 11 12 11 12 15 21 22 25 28 30 32 32 34 35
26 25 38 39 37 38 38 36 34 41 65 52 48 66 59 78 78 78 74 63 60 56 51 33 22 18 17 16 14 13 12 12 13 12 12 12 12 12 13 17 22 24 27 29 30 31 31 32 34
18 29 35 37 35 32 31 32 35 33 50 57 64 78 84 66 84 80 85 89 78 70 68 46 31 25 21 19 17 15 13 12 12 13 13 12 12 12 15 18 22 26 28 28 28 29 30 31 33
15 19 36 32 30 30 26 26 31 33 37 50 61 63 65 86 95 74 65 86 98 89 77 80 46 32 28 24 22 18 16 14 13 13 14 14 14 14 17 19 20 22 24 27 28 30 31 33 36
18 23 26 25 24 22 22 24 24 28 30 31 34 35 36 38 59 87 70 72 90 97 95 89 91 75 43 31 28 26 20 17 16 15 15 15 16 16 18 19 21 22 26 28 28 28 30 33 36
9 13 16 16 14 10 11 15 17 23 24 25 28 29 31 32 34 41 71 74 72 82 81 88 91 97 93 85 42 31 28 21 18 18 17 17 18 18 19 21 24 27 28 28 28 29 31 34 35
6 6 7 9 11 13 14 10 9 12 16 20 22 23 26 28 30 31 34 47 76 88 77 58 49 80 96 96 96 68 35 30 22 20 20 19 19 21 23 25 27 27 28 28 29 30 32 34 35
7 6 6 6 6 8 10 14 16 14 12 11 10 13 16 20 22 25 28 31 34 48 76 78 76 73 69 92 100 99 58 38 30 23 21 22 22 23 25 27 29 29 29 28 28 29 30 32 33
7 7 5 5 4 4 5 16 15 12 10 9 11 11 11 11 13 16 18 20 24 27 32 62 76 79 82 81 95 100 94 47 38 31 24 23 24 25 26 27 28 29 29 29 29 30 29 28 30
5 8 10 6 5 4 3 9 14 12 9 8 6 5 7 10 15 16 14 15 16 18 19 25 47 45 54 68 84 92 100 74 38 40 35 25 23 24 26 27 28 28 29 29 31 32 32 31 30
6 8 9 7 6 8 10 12 13 14 14 13 14 12 10 10 8 8 14 17 15 16 16 15 20 42 45 44 51 72 84 90 49 32 38 40 27 23 24 26 28 28 29 30 32 33 33 32 31
9 9 12 20 18 13 19 12 13 19 33 31 30 29 33 24 22 19 17 13 17 18 18 21 19 20 33 48 50 47 65 79 92 56 55 38 38 28 24 24 25 27 29 30 30 30 31 30 30
10 10 10 14 18 17 27 22 26 34 32 36 44 46 49 49 34 22 19 17 33 17 20 20 21 24 27 29 49 48 48 57 77 92 94 72 37 35 28 24 24 24 25 26 27 27 28 28 28
6 7 13 19 13 31 24 37 55 55 58 56 47 56 66 57 49 48 37 33 26 32 22 23 20 20 23 31 36 51 52 48 66 82 86 61 58 35 33 28 24 23 23 23 23 24 24 25 26
4 6 9 18 24 40 43 31 45 48 52 38 35 65 68 41 24 34 44 44 41 36 39 29 23 20 20 21 35 43 53 46 49 65 85 96 62 44 35 35 34 28 23 22 22 22 23 23 24
6 5 10 18 34 43 64 56 46 40 45 51 55 61 44 38 30 21 18 30 40 40 36 40 40 27 22 21 21 30 54 57 54 52 66 87 98 66 41 34 32 34 34 31 22 21 21 22 23
5 6 18 26 38 62 74 60 53 46 46 60 56 50 45 41 33 28 18 14 19 35 46 39 32 42 32 26 23 22 24 32 48 56 57 60 86 98 100 94 71 56 48 39 32 27 22 21 22
6 7 32 35 55 52 79 50 56 58 53 66 64 51 46 43 39 31 25 17 13 15 29 45 48 40 40 41 33 27 22 26 26 34 47 56 70 90 82 100 97 88 85 84 79 44 32 24 22
14 14 22 30 42 46 37 38 57 62 64 58 59 66 58 54 51 37 27 21 22 18 21 33 46 52 50 44 47 40 30 25 27 27 33 39 46 65 88 80 85 88 84 81 79 90 66 40 29
21 28 42 52 66 76 61 54 39 45 54 72 64 65 64 61 63 47 32 23 30 40 43 39 40 47 51 50 47 47 47 33 25 24 26 38 32 30 40 66 77 77 73 72 84 84 86 68 41
16 25 44 43 61 51 48 50 42 52 52 39 36 37 37 35 43 31 27 25 40 59 64 62 57 47 44 46 46 45 46 48 39 27 25 26 23 24 24 28 53 59 71 73 81 80 93 95 83
24 27 32 38 63 59 48 31 44 63 71 52 51 51 52 54 45 32 29 44 60 76 76 67 56 48 45 42 43 42 42 42 45 43 30 24 28 23 21 22 23 30 51 69 83 80 88 96 96
28 32 35 39 56 65 66 44 42 59 60 55 64 67 67 65 67 64 67 66 73 79 75 52 50 45 44 44 42 41 39 41 44 45 42 36 30 20 18 18 18 21 24 27 61 81 84 83 93

GFSSGP_700_rhum_285.txt.gz
RH
2 3 2 6 24 16 16 19 20 23 28 34 35 59 71 90 83 58 86 45 10 10 11 12 12 12 14 15 17 16 12 11 12 12 13 13 15 14 14 14 12 10 10 12 13 17 17 15 15
4 3 4 24 17 16 23 26 28 38 44 44 56 58 77 64 97 80 61 16 11 11 12 12 12 13 12 13 12 12 12 12 12 13 13 14 18 16 15 14 12 10 10 11 12 15 11 10 11
8 5 22 16 15 20 27 32 34 48 47 50 68 61 46 53 84 77 21 14 11 12 12 12 12 12 11 12 12 12 12 12 12 13 12 16 20 16 15 14 11 10 10 10 10 11 10 10 11
23 18 20 19 26 29 33 38 41 47 55 54 59 59 38 26 95 29 18 15 13 12 13 13 12 12 11 11 12 12 12 13 13 12 14 16 20 15 14 12 11 10 10 10 10 10 11 12 13
35 27 20 24 26 30 34 38 50 60 76 78 62 78 60 51 40 58 32 17 16 14 14 14 13 12 11 11 12 13 13 13 13 13 14 16 18 15 13 11 11 11 11 11 12 14 16 19 21
24 24 24 25 26 27 33 34 40 49 62 73 86 50 65 72 62 53 53 18 17 18 18 17 16 14 12 12 11 12 13 14 13 13 14 15 16 14 12 11 11 12 15 18 20 21 22 23 24
20 23 23 24 26 28 32 31 35 39 63 65 85 50 87 75 74 76 79 39 25 22 23 22 21 19 16 13 12 12 12 13 13 14 14 15 14 13 11 12 14 20 21 22 23 24 24 26 27
26 25 29 26 27 29 32 30 34 47 51 63 49 56 65 59 74 84 97 70 55 39 35 32 30 26 23 18 14 13 12 12 13 13 14 16 12 12 12 15 21 23 25 26 28 29 31 32 34
26 27 30 26 29 30 30 31 32 43 52 58 60 65 68 56 75 67 74 73 70 62 50 42 38 36 32 28 20 15 14 13 13 13 13 15 13 12 14 20 22 25 27 30 32 31 32 34 36
21 22 25 27 29 31 32 30 34 42 45 49 62 63 68 63 66 64 58 59 72 73 65 62 60 48 42 36 32 24 16 14 14 14 13 14 13 14 16 23 26 27 28 27 28 29 30 32 34
22 23 26 27 29 28 33 34 33 37 45 48 56 61 68 70 69 68 62 62 60 72 67 63 59 54 56 58 41 36 30 18 15 14 14 14 13 14 18 23 26 28 29 29 28 29 31 33 36
24 26 25 26 26 26 27 32 32 35 45 44 47 53 57 59 67 78 69 75 72 76 77 77 78 72 62 44 62 59 54 39 25 16 15 15 15 14 19 24 27 28 29 29 29 31 32 33 36
24 24 26 23 21 16 17 18 23 28 34 38 44 47 46 47 50 67 76 71 68 68 83 86 82 85 80 67 53 60 85 62 53 35 18 16 16 14 17 24 26 28 29 29 30 29 28 30 34
25 21 24 22 23 22 16 16 27 15 17 22 26 27 32 34 34 35 38 55 70 72 74 76 79 70 81 85 80 57 61 60 65 52 41 21 17 16 16 21 26 27 27 29 30 29 28 28 32
18 13 10 16 21 21 13 31 22 18 16 12 11 10 12 13 20 23 25 28 31 44 65 63 68 74 67 69 87 87 75 68 66 60 42 34 22 17 18 20 23 26 28 29 30 29 28 30 32
21 19 16 18 20 8 7 36 34 18 27 17 21 29 25 16 6 5 8 10 17 24 27 32 40 55 64 72 68 82 92 86 83 68 58 36 32 22 18 20 22 25 26 29 30 30 29 28 29
13 11 17 22 17 18 18 38 53 40 46 49 49 50 50 54 30 4 2 2 4 7 13 23 27 33 34 44 62 68 77 98 92 94 80 49 35 30 22 19 20 24 26 27 30 30 30 29 29
12 15 19 20 21 21 27 44 54 55 57 57 55 52 53 54 38 13 8 6 4 2 2 5 13 21 28 30 30 43 55 70 92 88 77 86 63 46 36 26 20 20 24 26 28 29 29 29 29
15 14 18 21 13 23 31 42 53 61 61 61 57 59 62 38 11 10 11 12 11 10 7 4 3 6 13 20 24 25 30 44 47 73 91 98 92 77 55 36 30 26 21 22 25 27 29 29 28
15 17 21 22 10 28 30 41 53 59 61 59 58 55 67 72 68 35 21 14 18 17 15 15 12 6 4 10 14 18 20 21 34 42 48 64 88 86 73 38 36 38 28 24 22 24 26 28 28
12 20 20 20 23 28 28 36 48 58 59 44 46 50 57 68 70 72 28 24 23 20 20 18 20 18 10 9 13 16 16 17 18 26 38 50 53 80 99 86 41 39 47 38 26 24 23 24 25
21 2 4 20 25 18 26 20 37 47 41 40 40 47 54 62 70 76 71 38 27 20 16 14 19 22 24 16 20 27 20 19 19 20 23 32 50 55 86 100 99 79 56 54 46 31 25 24 24
23 3 26 26 24 25 24 17 38 41 36 44 37 46 54 59 65 72 78 58 56 29 26 18 13 13 18 27 27 20 31 27 22 20 22 24 29 38 64 95 84 98 87 81 70 61 36 30 25
4 33 36 35 29 31 29 21 23 31 37 33 40 43 48 54 54 60 67 80 89 47 32 26 16 14 11 12 22 33 22 31 34 29 24 22 24 31 36 64 100 88 97 99 99 73 68 56 42
37 41 50 38 44 38 38 24 42 43 38 41 46 48 55 52 56 65 63 66 88 88 40 29 20 15 18 16 20 29 36 29 28 34 33 28 23 24 29 37 65 99 97 99 99 94 88 86 70
27 41 68 67 25 18 26 18 53 38 38 49 53 46 48 62 72 73 78 87 92 97 50 26 16 18 24 28 31 30 34 38 38 31 34 37 32 27 27 27 29 31 59 71 66 88 100 99 84
38 52 17 49 43 27 16 28 30 35 36 38 42 57 65 77 82 83 83 87 95 97 95 20 16 26 34 36 40 40 37 37 37 40 38 37 39 38 34 36 35 33 46 49 87 66 96 100 95
40 12 66 58 76 64 21 18 23 33 34 43 54 63 69 79 84 85 90 92 98 98 100 67 38 42 42 43 45 45 42 40 38 37 37 38 37 40 40 38 42 42 38 50 88 70 81 96 97
36 53 38 61 58 58 32 20 31 35 42 50 57 68 70 72 80 80 88 94 99 99 100 95 43 48 52 53 53 50 43 39 36 37 36 34 35 36 36 39 40 44 48 41 51 59 66 85 96
36 48 56 69 94 47 40 27 29 44 44 53 62 70 70 73 79 85 78 89 92 95 94 82 46 39 47 52 53 52 49 42 36 30 34 36 34 33 32 32 35 39 42 46 49 47 51 61 88

GFSSGP_700_rhum_288.txt.gz
RH
2 2 2 7 26 24 16 17 18 23 30 30 77 85 86 83 58 74 99 44 20 13 13 12 10 10 10 11 11 11 11 12 13 13 14 17 15 14 14 12 10 12 15 17 18 19 18 19 18
3 2 4 24 26 17 22 22 30 36 39 55 83 72 64 96 99 99 96 23 14 13 13 12 10 10 9 10 10 11 11 13 14 13 16 20 16 15 13 11 10 11 12 14 14 13 13 13 12
3 6 26 24 26 23 26 30 37 40 43 63 62 56 57 97 98 100 82 22 13 13 14 12 10 10 10 10 11 11 11 12 13 14 19 24 16 15 13 11 10 11 11 12 12 11 11 11 11
10 24 24 26 30 33 37 49 54 58 68 83 58 56 95 100 99 95 95 71 14 15 15 13 12 10 10 10 10 11 12 12 12 14 18 24 16 14 12 11 11 11 10 10 11 11 11 12 13
23 26 23 27 29 32 37 50 70 68 71 91 60 53 76 100 98 99 94 100 20 19 17 16 14 12 11 11 11 11 12 12 13 13 16 19 16 14 11 12 11 11 11 11 12 14 17 19 21
30 27 23 24 28 31 33 37 46 55 80 60 64 51 70 83 96 99 92 57 26 22 20 19 18 15 13 12 11 11 11 12 13 14 14 15 14 12 11 12 12 12 14 18 20 21 22 23 24
26 22 23 26 29 29 32 36 43 55 50 73 74 46 96 88 93 99 76 54 29 25 24 24 22 21 17 14 12 12 12 12 13 14 14 15 12 11 12 12 15 19 20 21 22 24 25 26 28
26 23 23 26 29 29 33 42 48 53 47 55 56 80 91 72 94 95 94 63 41 35 38 30 26 24 24 20 15 13 13 13 13 14 14 15 12 11 12 15 21 21 23 24 26 29 32 33 33
27 29 26 27 28 30 32 43 48 53 54 50 54 64 72 59 72 66 67 70 58 50 44 38 27 43 34 29 25 18 14 14 14 14 14 15 12 12 13 21 22 24 26 28 30 32 34 36 37
21 29 26 29 30 31 32 39 42 43 53 58 59 62 70 65 71 59 53 60 55 60 54 50 44 30 39 66 33 30 22 16 14 14 14 15 13 12 14 20 25 27 30 31 30 31 32 34 37
22 25 26 26 31 34 31 32 40 36 40 48 56 57 62 66 73 54 49 49 51 56 64 71 66 62 58 54 54 34 37 28 18 15 15 15 14 13 16 21 24 27 28 30 30 30 31 33 37
21 24 25 27 29 34 36 35 32 33 43 45 47 52 56 61 65 75 71 63 55 52 55 57 69 75 76 68 59 54 76 55 39 24 16 16 15 14 15 20 24 27 28 28 27 29 33 33 34
23 25 27 29 29 29 30 29 31 32 35 39 45 47 48 51 58 64 68 68 67 66 62 55 60 68 74 82 66 57 57 59 95 63 29 19 17 16 15 19 23 27 28 28 27 29 30 31 34
23 22 21 22 18 16 12 15 18 17 20 25 28 31 37 43 42 38 43 60 66 67 66 66 64 65 61 56 72 69 63 74 61 53 79 41 22 18 17 17 22 26 28 28 26 30 28 28 30
16 12 17 20 22 13 26 28 17 23 20 20 15 14 13 14 21 27 26 30 39 46 60 65 66 61 62 63 64 60 71 67 75 74 59 72 46 29 18 18 18 24 27 28 27 29 29 28 29
20 19 20 15 12 5 15 44 31 29 41 39 38 33 32 23 11 7 6 7 14 19 27 33 43 55 52 56 61 66 66 75 67 65 73 83 55 52 39 20 19 20 24 27 28 30 31 30 29
14 15 17 17 17 14 21 44 40 41 48 47 48 48 52 47 23 7 4 3 2 2 3 7 19 30 33 36 43 53 65 74 78 88 82 68 89 76 61 38 22 20 21 25 27 28 30 30 30
13 14 19 21 20 23 34 45 48 52 53 53 53 56 58 56 44 14 5 3 4 4 4 3 2 3 14 26 28 32 37 52 64 72 88 87 92 89 80 81 60 40 20 22 25 26 28 30 30
13 15 18 18 18 24 32 46 53 54 54 52 52 56 52 46 51 20 8 5 3 4 6 7 7 5 2 2 12 21 23 27 30 49 57 75 93 89 99 100 93 83 44 22 22 24 26 28 30
14 16 19 21 12 25 31 41 51 56 53 51 48 51 59 58 56 47 25 14 16 13 10 7 8 9 11 8 3 3 10 16 20 25 24 37 47 59 68 99 84 90 94 59 29 31 24 25 27
17 19 18 20 12 21 22 36 48 53 49 40 43 48 53 59 64 70 73 71 32 22 22 18 13 10 15 17 15 7 4 8 15 18 19 20 24 34 46 71 83 79 100 92 63 58 48 37 24
20 3 4 17 23 20 21 24 39 48 45 36 39 44 52 56 58 61 54 65 71 72 27 24 22 19 17 15 16 19 14 5 9 20 20 21 20 21 26 46 99 99 97 91 99 89 58 57 56
22 3 8 22 24 23 18 14 36 38 34 38 38 41 46 50 54 51 57 62 74 85 51 29 27 24 20 18 15 12 12 22 15 13 27 29 28 23 22 25 34 48 72 96 87 91 97 70 56
4 20 30 31 28 30 24 16 34 33 31 29 36 42 46 53 51 54 61 54 64 83 78 51 43 30 21 15 14 13 12 10 16 25 18 23 31 34 26 27 26 25 34 74 86 85 100 98 79
31 42 62 43 45 51 32 25 33 36 35 33 38 48 46 53 37 36 74 75 85 85 83 60 48 27 21 12 11 11 10 10 11 16 27 27 24 30 36 33 35 25 26 33 40 86 93 83 94
31 43 77 75 42 25 30 17 43 33 27 26 44 41 56 64 40 68 75 86 56 82 89 66 39 24 21 14 14 15 17 16 16 24 27 27 30 32 31 34 36 36 31 32 29 32 48 62 82
40 50 40 49 42 33 14 25 26 26 27 26 38 52 60 67 62 64 50 76 48 85 92 53 32 30 29 27 22 23 30 35 32 29 34 34 32 30 35 37 35 39 38 39 36 34 35 64 83
24 35 63 48 72 60 25 20 26 34 30 35 44 56 64 60 42 41 46 76 74 82 79 51 36 30 29 30 34 35 38 45 45 40 36 34 34 33 30 31 34 36 36 37 40 45 46 74 73
36 41 27 41 60 61 38 25 30 32 35 39 42 58 63 51 47 57 59 53 50 80 90 62 27 17 14 14 15 22 33 40 43 43 40 36 32 29 33 32 30 28 33 34 36 38 50 60 94
26 48 45 55 82 52 45 35 29 36 32 30 50 58 66 72 76 76 75 81 77 80 85 61 37 17 13 9 8 9 10 11 17 30 36 35 34 31 25 28 31 30 28 29 32 34 38 48 62